Weather History for Elkins, WV

Change the Weather History Date:

Sunday, June 29, 2014

  Actual Average Record
Temperature  
Mean Temperature 72 °F 69 °F  
Max Temperature 80 °F 81 °F 96 °F (2012)
Min Temperature 63 °F 58 °F 42 °F (1936)
Degree Days  
Heating Degree Days 0 1  
Month to date heating degree days 14 55  
Since 1 June heating degree days 14 55  
Since 1 July heating degree days 6002 5852  
Cooling Degree Days 7 5  
Month to date cooling degree days 138 88  
Year to date cooling degree days 174 111  
Since 1 June cooling degree days 138 88  
Growing Degree Days 22 (Base 50)    
Moisture  
Dew Point 64 °F    
Average Humidity 78    
Maximum Humidity 93    
Minimum Humidity 62    
Precipitation  
Precipitation 0.16 in 0.17 in 1.76 in (1957)
Month to date precipitation 4.47 4.24  
Year to date precipitation 19.81 23.45  
Snow  
Snow 0.00 in - - ()
Month to date snowfall 0.0  
Since 1 September snowfall 92.3  
Snow Depth 0.00 in    
Sea Level Pressure  
Sea Level Pressure 30.20 in    
Wind  
Wind Speed 3 mph (South)    
Max Wind Speed 12 mph    
Max Gust Speed 17 mph    
Visibility 8 miles    
Events Rain    
T = Trace of Precipitation, MM = Missing Value Source: NWS Daily Summary

Daily Weather History Graph

Daily Weather History Graph

Search for Another Location

Airport:

Trip Planner

Search our weather history database for the weather conditions in past years. The results will help you decide how hot, cold, wet, or windy it might be!

Date:

Astronomy

Jun. 29, 2014 Rise Set
Actual Time 5:56 AM EDT 8:48 PM EDT
Civil Twilight 5:24 AM EDT 9:20 PM EDT
Nautical Twilight 4:44 AM EDT 10:00 PM EDT
Astronomical Twilight 3:58 AM EDT 10:46 PM EDT
Moon 8:11 AM EDT (6/29) 10:10 PM EDT (6/29)
Length of Visible Light 15h 55m
Length of Day
14h 51m
Waxing Crescent, 5% of the Moon is Illuminated
Jun 29
Waxing Crescent
Jul 5
First Quarter
Jul 12
Full
Jul 18
Last Quarter
Jul 26
New

Hourly Weather History & Observations

Time (EDT) Temp. Dew Point Humidity Pressure Visibility Wind Dir Wind Speed Gust Speed Precip Events Conditions
12:51 AM 66.0 °F 61.0 °F 84% 30.23 in 10.0 mi East 3.5 mph - N/A   Scattered Clouds
1:51 AM 64.0 °F 61.0 °F 90% 30.25 in 9.0 mi Calm Calm - N/A   Mostly Cloudy
2:51 AM 64.9 °F 61.0 °F 87% 30.25 in 9.0 mi Calm Calm - N/A   Overcast
3:51 AM 64.9 °F 62.1 °F 90% 30.24 in 8.0 mi West 3.5 mph - N/A   Overcast
4:51 AM 64.9 °F 62.1 °F 90% 30.23 in 9.0 mi Calm Calm - N/A   Scattered Clouds
5:51 AM 64.9 °F 62.1 °F 90% 30.23 in 8.0 mi Calm Calm - N/A   Mostly Cloudy
6:51 AM 66.0 °F 62.1 °F 87% 30.23 in 7.0 mi Calm Calm - N/A   Mostly Cloudy
7:51 AM 66.9 °F 63.0 °F 87% 30.23 in 9.0 mi Calm Calm - N/A   Mostly Cloudy
8:51 AM 71.1 °F 62.1 °F 73% 30.24 in 10.0 mi SSE 5.8 mph - N/A   Overcast
9:51 AM 71.1 °F 63.0 °F 75% 30.24 in 10.0 mi Calm Calm - 0.00 in   Overcast
10:51 AM 71.1 °F 63.0 °F 75% 30.23 in 10.0 mi South 3.5 mph - 0.00 in Rain Light Rain
11:51 AM 73.0 °F 64.0 °F 73% 30.22 in 10.0 mi North - - 0.01 in   Overcast
12:51 PM 72.0 °F 64.9 °F 78% 30.22 in 8.0 mi South 6.9 mph - 0.00 in Rain Light Rain
1:51 PM 75.9 °F 66.9 °F 74% 30.20 in 10.0 mi Variable 3.5 mph - 0.00 in   Mostly Cloudy
2:51 PM 78.1 °F 64.9 °F 64% 30.17 in 10.0 mi Variable 4.6 mph - 0.00 in   Overcast
3:51 PM 79.0 °F 66.0 °F 64% 30.16 in 10.0 mi South 4.6 mph - N/A   Overcast
4:41 PM 72.0 °F 66.9 °F 84% 30.18 in 2.0 mi West 4.6 mph - 0.02 in Rain Rain
4:48 PM 71.6 °F 68.0 °F 88% 30.18 in 1.0 mi WNW 5.8 mph - 0.06 in Rain Heavy Rain
4:51 PM 71.1 °F 68.0 °F 90% 30.16 in 1.0 mi NW 3.5 mph - 0.09 in Rain Heavy Rain
5:00 PM 72.0 °F 69.1 °F 91% 30.17 in 3.0 mi Calm Calm - 0.03 in Rain Rain
5:51 PM 77.0 °F 66.9 °F 71% 30.13 in 10.0 mi Calm Calm - 0.03 in   Clear
6:51 PM 75.9 °F 66.0 °F 71% 30.12 in 10.0 mi SSE 5.8 mph - N/A   Clear
7:51 PM 73.4 °F 64.4 °F 73% 30.16 in 10.0 mi South 4.6 mph - N/A   Mostly Cloudy
8:51 PM 70.0 °F 63.0 °F 78% 30.14 in 10.0 mi South 4.6 mph - 0.03 in   Overcast
9:51 PM 68.0 °F 63.0 °F 84% 30.14 in 10.0 mi Calm Calm - N/A   Clear
10:51 PM 68.0 °F 62.1 °F 81% 30.14 in 10.0 mi SE 5.8 mph - N/A   Clear
11:51 PM 64.4 °F 62.6 °F 94% 30.17 in 8.0 mi Calm Calm - N/A   Clear